RH
58 60 62 63 63 61 56 45 38 40 47 55 64 71 67 49 26 9 3 4 4 3 3 4 4 4 4 5 5 5 4 4 4 4 5 5 5 5 4 4 5 5 5 5 5 5 5 6 6 6 6 6 6 6 6 6 6 6 6 6 6 6 5 5 6 5 5 5 5 5 5 6 6 6 6 6 6 7 7 7 7 8 8 7 8 8 8 8
59 61 62 62 62 61 58 48 38 35 37 44 52 60 68 71 62 41 17 5 3 4 3 3 3 3 3 3 4 4 4 4 4 4 3 4 4 4 4 4 4 4 5 5 5 5 5 5 5 5 5 5 5 5 6 6 6 6 6 6 6 6 6 6 6 5 6 6 6 6 6 6 6 6 6 7 7 7 7 8 7 8 8 8 8 8 8 8
61 61 61 59 58 58 55 49 41 37 34 34 40 48 56 64 70 68 52 29 11 4 3 3 3 3 3 3 3 3 3 3 3 3 3 3 3 3 4 3 4 4 4 5 5 5 5 5 5 5 5 5 5 5 6 6 6 6 6 6 6 6 6 6 6 6 6 6 7 7 7 7 7 7 7 7 8 7 7 7 7 8 7 7 8 8 8 8
65 64 61 59 58 57 54 52 47 43 39 35 33 36 44 53 60 68 71 62 43 21 7 3 3 3 3 3 3 3 3 3 3 3 3 3 3 3 3 3 3 3 4 4 4 5 5 5 5 5 5 5 5 5 5 5 6 6 6 6 6 6 6 6 6 7 7 7 7 7 7 7 7 8 7 8 8 8 8 7 7 7 7 8 7 7 7 7
69 66 62 59 58 58 55 53 51 47 44 40 37 35 35 41 48 57 65 70 68 53 31 13 5 3 4 3 3 3 3 3 3 3 4 4 4 3 3 3 3 3 3 3 4 4 5 5 5 4 4 4 5 5 5 5 5 6 6 6 6 6 6 7 7 7 8 8 8 7 8 8 8 8 8 8 8 8 8 7 7 7 7 7 7 7 7 7
63 61 58 55 51 50 48 46 43 42 40 38 37 38 37 36 38 46 53 61 68 69 60 40 19 6 3 4 3 3 3 3 3 3 4 4 4 3 3 3 3 3 3 3 4 4 4 4 4 4 4 5 5 5 5 5 6 6 6 6 6 7 7 7 8 8 8 8 8 8 8 8 8 8 8 8 8 7 7 7 7 7 7 7 7 7 7 7
53 51 47 46 43 41 40 39 37 34 33 32 32 33 34 35 36 37 42 50 58 64 68 63 46 23 8 4 4 4 3 3 3 3 3 3 4 3 3 4 3 4 4 4 4 4 4 4 4 4 4 5 5 5 6 6 6 6 6 7 7 7 8 8 8 9 9 9 9 8 8 8 8 8 8 7 7 7 7 7 7 7 6 6 6 6 6 6
40 37 34 32 32 32 33 34 34 34 32 31 31 31 31 32 34 35 36 40 48 55 61 66 64 49 27 11 4 4 4 3 3 3 3 3 3 3 3 3 3 4 4 3 4 4 4 4 4 4 4 5 5 5 6 6 6 6 6 7 7 8 9 9 9 9 9 9 8 8 8 8 8 8 7 7 7 7 7 6 6 6 6 6 6 6 6 6
26 24 22 22 23 25 27 28 29 30 30 31 31 32 32 32 32 34 36 36 38 44 50 58 64 63 51 28 10 5 4 4 3 3 3 3 3 3 3 4 4 4 4 4 4 4 4 4 4 4 4 4 5 5 5 6 6 6 7 7 8 8 9 9 9 9 9 8 8 8 8 8 8 7 7 7 7 7 7 6 6 6 6 6 6 6 6 6
18 18 18 19 21 22 23 24 26 28 30 33 35 36 36 36 35 35 37 38 36 36 40 47 56 62 62 48 26 10 6 4 4 4 3 4 3 3 4 4 4 4 4 4 4 4 4 4 4 4 4 4 5 5 5 6 6 7 7 8 9 9 9 9 9 9 8 8 8 8 8 8 7 7 7 7 6 6 6 6 6 6 6 6 6 6 6 6
18 19 20 22 24 26 28 30 33 37 39 41 42 44 43 42 40 38 40 41 39 35 33 37 46 55 60 57 42 22 13 7 4 4 4 4 4 4 4 4 4 4 4 4 4 4 4 4 4 4 5 5 5 6 6 7 7 8 8 8 9 9 9 9 9 9 8 8 8 8 8 8 8 7 7 6 6 6 5 6 5 5 5 5 6 5 5 6
24 27 31 36 41 45 47 49 51 51 52 52 51 50 49 48 46 43 42 42 41 37 32 31 37 48 55 57 49 33 23 14 5 5 4 4 4 4 4 4 4 4 4 4 4 4 4 4 4 5 5 5 6 6 7 7 7 8 8 8 9 9 9 9 9 9 9 8 8 8 8 7 8 7 6 6 6 6 5 5 5 5 5 5 5 5 5 5
40 48 55 60 64 67 68 67 66 64 62 59 55 51 47 45 43 42 42 42 42 38 34 29 30 40 50 55 52 39 27 17 9 6 5 4 4 4 4 4 4 4 4 4 5 4 5 5 5 5 5 5 6 7 7 7 7 8 8 8 9 9 9 9 9 9 9 9 8 8 7 7 8 8 7 7 6 6 6 5 5 5 5 5 5 5 5 6
59 64 68 72 74 76 77 77 75 71 64 54 45 38 33 31 30 31 35 38 41 40 36 29 26 33 44 52 55 45 30 19 11 7 6 5 4 4 4 4 4 4 4 4 5 5 5 5 5 6 6 6 7 7 7 8 8 9 9 9 9 9 9 9 9 9 9 9 8 8 7 7 8 8 7 7 6 6 6 6 6 5 5 5 5 5 6 7
61 63 66 71 73 72 73 74 73 64 50 44 38 28 21 20 21 22 26 32 38 40 35 27 23 28 37 48 55 50 37 24 14 8 7 6 5 5 5 5 5 4 4 5 5 5 5 6 6 6 7 7 7 7 8 8 9 10 9 9 9 9 9 9 10 10 10 9 9 9 8 7 8 8 7 7 6 6 6 6 6 5 5 5 5 6 7 8
52 58 63 66 64 62 64 65 61 52 45 49 43 26 18 20 22 24 28 33 38 38 30 24 23 25 33 45 53 51 41 29 19 12 8 6 6 5 5 5 5 5 5 5 5 6 6 6 7 7 7 8 8 8 8 8 9 10 9 9 9 9 9 10 10 10 10 9 9 9 8 8 8 8 7 7 7 6 6 6 6 6 6 6 7 7 8 9
57 59 59 58 55 53 55 56 54 51 49 46 34 20 17 21 23 27 31 33 35 31 24 22 21 22 32 45 52 52 42 30 21 15 9 7 6 6 6 5 5 5 5 5 6 6 6 7 7 8 9 9 9 9 9 9 10 10 10 9 9 9 10 10 10 10 10 9 9 9 8 8 8 8 8 7 7 7 7 7 8 8 8 8 8 9 9 10
56 51 46 43 43 45 47 49 50 48 42 34 27 22 18 19 20 23 25 25 25 22 20 21 19 24 38 48 52 53 45 31 20 12 8 7 7 6 5 5 5 5 5 5 6 6 7 8 9 9 10 10 9 9 9 9 10 10 10 10 10 10 10 10 10 10 10 9 9 9 8 8 8 8 8 8 7 8 8 9 9 9 10 9 9 10 10 10
51 45 39 34 34 38 40 42 42 39 36 32 30 26 22 20 20 19 20 19 19 18 20 25 29 38 52 57 60 58 48 34 19 9 8 8 8 8 7 7 6 6 5 6 6 7 8 9 10 10 10 10 10 9 10 10 10 10 10 10 10 10 10 11 10 10 9 9 9 9 9 8 9 9 9 9 9 9 9 10 10 10 10 10 10 10 11 11
64 58 50 43 41 41 42 43 42 43 45 44 43 43 41 37 35 34 32 31 32 32 34 40 48 59 70 75 76 70 57 42 24 11 8 7 7 8 8 8 8 7 7 7 7 8 8 8 10 10 10 10 10 11 11 11 11 10 11 11 11 11 10 10 9 9 9 9 9 10 10 9 9 9 9 10 10 10 11 11 11 11 11 11 11 11 12 13
78 74 69 66 64 62 62 63 64 67 72 76 78 80 79 74 72 69 63 59 57 56 57 61 68 78 86 89 87 78 65 51 35 22 14 11 9 9 9 9 8 8 8 9 10 13 15 17 19 19 18 17 15 15 14 13 13 12 12 12 11 11 10 10 10 10 10 10 10 10 10 10 10 9 9 10 11 11 11 11 11 11 11 11 12 13 15 16
71 66 63 62 61 60 61 64 66 69 75 81 88 94 98 97 96 96 93 90 87 84 84 85 88 91 93 93 88 82 73 59 47 36 25 18 12 9 10 11 13 17 22 29 35 38 39 37 35 31 27 22 19 18 17 15 14 12 12 12 12 12 12 12 12 12 12 11 11 10 10 11 11 10 10 10 10 11 11 11 11 11 11 12 13 15 16 18
44 41 39 39 40 41 43 45 49 53 56 63 73 83 88 87 88 91 92 91 90 92 94 95 98 98 98 97 93 90 86 79 72 63 53 44 34 28 28 28 32 36 39 41 41 39 35 31 28 25 22 20 18 18 17 16 15 15 15 15 15 14 14 13 13 12 11 11 11 10 11 11 11 10 10 10 10 10 11 10 11 11 12 13 14 16 17 19
39 39 41 42 43 44 46 47 49 51 53 59 65 69 70 71 73 75 76 75 73 73 74 76 79 82 86 90 89 89 89 88 86 80 75 68 59 54 50 45 42 39 35 32 29 28 27 25 25 23 21 20 19 19 19 20 20 18 17 16 15 14 13 13 12 11 11 11 11 11 11 11 10 10 10 10 10 10 11 11 12 12 13 15 16 18 20 23
51 50 51 51 51 54 55 58 59 58 59 62 63 65 67 68 69 69 70 71 69 66 62 59 58 58 62 67 71 75 77 77 76 73 70 65 59 55 49 44 41 37 34 33 32 32 30 27 26 23 23 23 22 22 22 22 20 17 15 14 13 12 12 12 11 11 11 11 11 11 11 11 10 10 10 11 11 12 12 13 15 16 18 19 21 23 27 31
53 53 55 56 58 60 61 64 65 66 68 67 67 69 70 70 68 66 64 63 63 62 58 55 52 50 51 52 55 59 60 60 60 60 60 58 54 51 46 42 40 36 33 31 29 27 25 25 25 25 25 24 23 21 19 17 15 14 13 13 12 12 12 12 12 11 11 11 11 12 13 13 12 13 13 13 14 15 17 18 20 22 23 25 27 30 33 38
55 58 60 61 64 66 69 71 71 72 69 66 67 66 67 67 63 56 53 51 52 54 55 55 52 48 46 46 46 46 43 41 41 41 41 40 39 38 37 35 33 32 31 30 30 30 30 29 28 26 23 20 18 16 15 14 13 13 12 12 12 12 12 12 12 12 13 12 13 15 17 17 17 17 17 18 18 19 21 23 24 25 26 28 31 34 38 43
60 62 64 67 71 72 71 66 59 54 48 45 49 53 56 55 51 49 49 46 46 50 53 56 58 57 53 49 46 44 40 39 39 39 38 39 39 40 40 39 39 39 39 38 36 33 29 25 22 19 17 15 14 14 13 13 12 12 12 12 13 13 13 14 14 15 16 14 15 20 22 22 22 21 21 22 21 21 22 23 24 26 27 29 33 38 42 44
66 68 71 72 65 54 42 31 24 20 18 21 30 37 41 44 47 50 46 38 37 39 40 45 55 61 62 62 60 58 55 53 51 49 48 47 46 45 42 39 38 35 33 31 26 22 19 16 15 15 14 13 13 13 13 13 13 13 14 14 15 15 15 16 15 16 17 15 16 20 22 23 23 21 21 22 21 22 24 25 27 28 30 33 37 40 42 44
73 73 65 49 33 20 12 9 7 5 8 14 20 25 35 48 52 43 33 28 25 24 24 28 33 38 43 46 48 49 48 45 42 40 39 37 35 33 30 27 25 22 19 18 15 14 14 14 14 13 13 13 14 14 14 15 15 15 15 16 16 16 16 15 15 17 18 17 18 21 23 24 25 24 25 27 27 29 31 33 34 36 38 41 43 45 48 52
69 52 32 19 15 15 14 12 9 9 12 16 20 30 47 61 51 32 27 27 24 20 19 20 20 21 23 24 26 28 28 28 27 26 26 25 23 22 20 18 16 15 14 14 14 14 14 14 14 14 15 16 16 16 16 16 16 16 16 17 16 17 17 17 17 19 21 22 24 25 27 30 30 30 31 31 33 36 37 40 43 46 49 51 53 57 63 68
38 19 16 23 29 29 25 21 20 22 25 29 37 49 64 67 48 31 29 30 28 25 21 20 19 19 20 20 21 21 21 22 22 21 20 18 17 16 16 15 14 14 14 14 14 14 15 15 16 16 17 17 16 17 17 17 17 18 18 19 19 19 19 18 18 19 20 22 23 24 27 29 28 30 34 35 37 39 42 47 53 58 63 67 71 76 82 87
14 20 34 42 42 41 39 39 41 45 49 55 61 68 74 70 51 34 32 35 36 34 30 25 22 22 20 20 20 19 19 18 17 17 16 15 15 15 15 15 14 14 14 14 14 14 16 17 17 17 17 17 17 16 17 18 19 19 19 20 19 20 20 17 17 18 19 20 22 24 28 29 28 32 39 43 45 47 52 59 67 74 81 87 91 95 97 99
25 42 49 48 49 52 52 52 54 59 67 72 74 76 75 65 48 36 35 39 40 41 38 31 24 23 21 18 18 17 16 16 15 16 15 15 15 15 15 15 15 15 15 15 15 14 14 16 17 18 18 18 18 18 18 18 18 19 20 21 21 22 23 21 20 20 21 22 23 26 31 33 33 36 42 49 54 59 66 75 85 92 97 100 101 101 101 100
46 50 49 50 54 58 60 61 63 67 72 74 73 73 68 53 39 34 35 36 40 44 40 30 21 18 17 16 15 15 15 15 15 15 15 16 16 16 16 16 16 16 16 15 15 13 13 15 18 19 19 20 20 20 21 21 22 22 22 24 24 25 27 26 25 25 26 26 25 28 33 35 39 41 44 53 61 69 81 91 98 102 101 101 101 100 101 100
49 48 49 52 55 59 64 65 66 67 66 65 64 62 57 46 36 34 35 38 43 42 32 21 16 15 15 15 15 15 16 16 16 17 17 17 17 17 17 16 16 16 16 15 16 15 14 16 21 22 22 23 23 23 24 24 26 25 25 27 28 29 30 30 29 29 31 30 28 31 33 36 43 45 48 60 70 80 93 100 102 103 101 100 100 100 100 100
47 47 48 48 49 53 55 55 56 55 52 52 53 52 49 47 43 41 41 41 37 28 19 14 14 15 16 16 17 18 18 18 18 18 18 17 17 17 16 16 16 17 17 17 18 17 15 15 21 24 24 25 25 25 27 28 29 29 30 31 32 33 33 34 34 33 34 35 32 34 37 39 44 49 55 66 75 83 94 100 101 102 101 100 100 100 100 100
44 40 37 35 36 36 36 37 38 37 36 35 35 34 32 34 33 30 29 25 20 15 14 15 16 17 18 19 19 19 18 18 18 17 17 17 17 17 17 18 18 18 18 18 18 19 16 15 20 25 25 27 27 26 29 30 30 31 33 34 36 36 37 38 38 39 40 41 38 38 40 42 47 56 64 70 76 87 97 100 100 101 100 100 100 100 100 100
33 27 23 22 22 22 22 23 23 23 21 19 18 17 16 16 15 14 15 14 14 16 17 18 18 18 19 19 17 17 16 16 16 16 17 17 18 18 18 18 19 18 19 19 20 21 20 19 21 26 29 29 28 27 29 31 32 33 35 36 38 39 40 41 42 45 49 48 45 42 41 44 52 62 70 77 87 97 101 100 100 100 100 100 100 100 100 100
23 19 17 17 17 17 16 16 15 14 12 12 12 12 11 12 12 13 15 16 17 18 18 18 17 16 16 16 16 17 17 17 17 18 18 18 18 18 18 19 20 21 21 22 23 23 24 23 23 28 31 31 31 29 29 30 31 33 36 38 40 41 42 42 43 50 56 55 54 51 46 46 55 67 78 91 98 100 101 100 100 100 100 100 100 100 100 100
18 17 16 16 14 13 12 11 11 10 10 11 11 12 14 15 16 17 17 17 16 15 14 14 14 15 16 17 18 18 18 18 18 17 18 18 18 19 20 21 22 23 24 25 27 27 27 26 25 27 30 31 31 30 30 31 32 34 37 39 40 43 46 46 44 49 57 59 61 64 57 49 58 76 91 100 102 100 100 101 100 100 100 99 99 100 100 102
16 15 14 13 12 10 10 10 10 10 11 13 14 15 16 15 14 14 12 12 12 13 14 15 16 17 18 18 18 18 19 19 19 19 20 20 21 22 23 23 24 25 26 28 30 31 29 28 27 27 29 30 30 31 31 32 32 35 38 40 43 47 50 52 51 51 56 58 64 73 70 61 68 85 96 101 101 101 100 100 100 100 101 101 102 101 100 96
14 13 12 11 10 10 10 10 12 13 13 14 13 12 11 10 9 10 11 13 15 16 17 17 17 17 17 17 17 17 18 19 20 20 22 22 23 24 25 26 27 27 28 29 31 32 31 29 27 26 28 30 31 32 31 32 34 37 40 43 47 51 54 57 59 60 60 60 67 76 74 70 76 84 90 96 101 101 101 101 101 99 96 93 89 83 76 69
11 11 10 9 9 11 12 12 13 12 10 9 8 8 9 10 11 13 15 16 16 17 18 18 17 17 18 17 17 18 18 20 22 22 24 25 25 26 26 27 28 28 28 29 30 31 32 32 29 26 26 26 27 28 28 29 32 36 43 48 51 55 58 59 63 66 66 65 69 74 72 71 77 82 84 88 91 92 91 88 83 77 70 65 60 56 54 52
10 10 9 10 11 12 11 9 8 7 7 7 9 11 13 15 15 16 17 17 17 17 18 18 17 18 19 19 20 21 21 22 23 23 24 24 24 24 24 24 25 26 28 29 29 31 32 33 33 32 32 29 26 27 27 26 27 32 41 50 55 58 61 63 66 69 69 68 70 73 74 75 78 79 77 76 76 74 71 66 60 56 52 50 49 49 51 50
10 10 11 11 10 9 6 6 7 8 10 12 14 15 16 17 16 16 16 17 17 16 17 18 18 19 21 22 22 23 23 22 22 21 21 21 20 20 19 20 22 23 26 29 29 30 31 34 36 37 38 35 30 31 33 31 30 32 38 48 56 60 64 67 70 71 72 74 75 76 78 76 75 74 72 71 67 63 59 55 52 51 50 50 51 51 48 43
10 10 9 7 7 6 6 8 10 12 14 15 16 16 16 16 16 16 16 17 16 17 17 18 19 20 20 20 20 21 20 19 18 17 17 17 16 17 17 18 21 24 27 28 29 29 32 35 36 35 39 39 33 34 40 39 39 40 43 48 54 60 65 70 73 76 78 79 78 77 75 72 71 71 70 65 60 56 54 53 53 55 56 54 53 50 44 38
8 6 5 5 7 8 10 13 14 15 16 15 15 16 16 16 16 17 17 17 17 18 18 18 18 18 17 17 17 16 16 16 16 16 15 15 15 16 17 20 23 26 28 28 30 32 34 35 31 27 35 41 38 40 45 46 48 51 50 51 56 62 69 73 76 79 80 77 74 71 69 68 68 67 63 59 57 56 57 58 63 65 60 53 49 44 39 38
5 4 6 8 10 12 14 15 15 15 15 15 15 16 16 17 17 17 18 18 18 18 17 17 16 16 15 15 15 14 14 14 14 14 15 15 14 15 19 24 26 26 27 30 34 35 33 30 25 21 28 36 38 43 50 51 53 54 55 60 65 66 67 70 74 76 74 72 69 67 66 66 64 59 56 56 57 59 61 63 67 62 52 45 44 42 39 37
6 8 11 12 13 15 15 15 15 15 14 16 17 17 17 17 17 17 17 17 16 16 16 15 15 15 15 14 14 14 14 14 14 14 14 13 14 17 20 25 26 28 32 34 35 32 26 24 22 19 24 33 37 40 43 45 45 48 56 62 58 52 53 60 66 68 66 64 63 62 59 54 49 48 49 51 53 55 57 57 55 49 44 44 44 43 41 41
10 12 13 14 15 15 15 15 15 15 16 17 17 17 17 16 16 16 16 16 16 15 15 14 14 14 14 14 14 14 14 14 14 13 14 14 18 21 22 25 29 34 36 33 28 24 21 22 24 23 24 28 27 23 21 21 21 27 37 37 28 27 33 40 45 46 44 44 43 40 37 33 33 36 40 43 46 47 47 46 44 43 44 47 49 51 54 59
14 14 14 15 15 15 16 16 16 17 17 16 16 16 16 16 16 16 15 14 13 12 11 11 10 11 11 12 13 13 13 13 13 15 19 20 22 25 28 33 36 34 31 25 21 21 23 25 25 23 20 16 12 9 7 6 6 9 13 12 9 12 15 15 19 22 22 23 23 23 24 27 29 32 33 36 39 41 43 44 45 48 54 61 68 73 77 81
Wind_Speed
5 4 3 3 4 4 4 2 1 2 3 2 1 2 2 3 3 3 3 3 4 4 4 3 3 3 3 3 3 3 3 4 4 5 5 6 6 6 7 8 8 8 8 9 9 9 9 10 11 11 12 12 12 13 14 14 14 14 14 14 15 16 16 15 16 17 18 19 20 20 20 20 22 22 22 23 23 23 23 24 25 25 26 27 27 29 30 31
6 6 5 5 6 5 6 5 2 2 4 5 5 3 2 1 1 1 2 3 4 4 5 5 5 4 3 3 3 4 4 5 5 5 6 6 7 7 8 9 9 9 10 10 11 11 11 12 13 13 14 14 15 15 15 16 16 16 16 16 17 18 18 17 18 19 19 20 20 21 21 22 23 23 23 24 24 25 25 26 26 26 27 28 29 30 31 32
7 7 7 7 7 8 7 7 5 2 2 4 6 6 5 4 3 3 2 3 3 5 5 6 6 7 6 5 5 5 5 6 6 6 7 7 8 8 9 10 10 11 12 12 13 13 14 14 15 16 16 16 17 17 17 18 18 18 18 18 19 20 19 19 20 21 21 22 22 22 22 23 24 24 24 25 25 26 27 27 27 28 29 30 30 31 32 33
8 8 8 8 8 9 9 9 8 6 4 3 4 6 7 7 7 6 5 5 4 5 6 7 8 8 8 8 8 7 7 7 7 7 8 8 9 10 10 11 12 12 13 14 14 15 16 16 17 17 18 18 18 19 19 20 20 20 20 20 21 21 21 21 22 23 23 23 24 24 24 24 25 25 26 26 26 28 28 29 29 30 31 31 32 33 34 35
10 10 10 10 10 10 10 10 10 9 8 7 6 6 7 8 9 9 8 8 7 7 7 8 9 10 10 10 10 10 10 9 9 9 9 10 10 11 11 12 13 14 14 15 16 17 18 18 19 19 20 20 20 20 21 21 22 22 22 22 22 22 23 23 24 24 24 25 25 25 26 26 26 27 27 28 28 29 30 30 31 32 33 33 34 34 35 37
12 11 11 11 11 11 12 12 11 11 11 10 10 9 8 8 9 10 11 11 10 9 9 9 10 11 12 12 12 12 12 12 12 11 11 11 11 12 12 13 14 14 15 16 17 18 19 20 20 20 21 21 21 21 22 23 23 23 23 23 23 24 24 25 25 25 25 25 26 26 26 27 27 28 29 29 30 32 32 32 33 34 35 35 36 36 37 39
13 12 12 12 12 13 13 13 13 13 13 12 12 12 11 10 10 11 11 12 12 12 12 12 12 12 13 14 14 14 14 14 14 14 14 13 13 13 13 14 15 15 16 17 18 19 20 21 21 21 22 22 22 22 23 23 24 24 24 24 24 25 25 26 26 26 26 26 27 27 28 28 28 29 30 31 32 33 34 35 36 36 37 37 38 38 39 41
13 13 12 13 13 14 14 14 14 14 14 14 14 14 14 13 13 12 12 13 14 14 14 14 14 13 13 14 15 16 16 16 16 16 16 16 15 15 15 16 16 17 17 18 19 20 21 22 22 23 23 23 23 23 24 24 25 25 25 25 25 25 26 26 26 27 27 27 28 28 29 30 30 31 33 34 34 36 37 38 38 39 39 40 40 41 42 43
12 12 13 13 14 14 15 15 15 16 16 16 16 16 16 16 16 15 15 14 15 15 16 16 16 15 15 15 16 17 18 18 19 18 18 18 17 17 17 17 17 18 18 19 20 21 22 23 23 24 24 24 25 25 25 25 25 25 25 26 26 26 26 26 27 27 28 29 30 30 31 32 33 34 35 36 37 38 40 41 41 42 42 42 43 44 45 46
12 12 13 14 14 15 15 16 16 17 17 17 18 18 18 18 18 18 18 17 16 16 17 17 17 18 17 16 16 17 18 20 20 20 20 19 19 19 19 19 19 19 20 21 21 22 22 23 24 25 25 25 25 25 26 26 25 26 26 26 26 27 27 27 28 29 30 31 32 32 33 34 35 36 38 39 40 41 42 43 43 44 44 45 45 46 47 48
12 13 14 14 15 16 16 16 17 17 18 19 19 19 20 20 20 20 20 20 19 18 18 18 19 19 19 18 18 18 18 20 21 22 22 21 21 21 20 20 20 21 21 22 23 23 23 24 25 25 26 26 26 26 26 26 27 27 27 27 27 27 28 29 30 31 32 33 34 35 35 36 37 39 40 40 41 43 44 44 44 45 46 46 47 48 49 50
12 13 14 14 15 15 16 16 17 17 18 19 19 20 21 21 21 21 22 23 22 20 19 19 20 20 20 20 19 19 19 20 21 22 22 22 22 22 22 22 22 22 23 23 24 24 25 25 25 26 26 27 27 27 27 27 28 28 28 28 28 28 29 31 32 33 34 35 36 37 38 36 37 40 42 42 43 44 45 46 46 47 47 48 48 49 50 51
12 12 13 14 14 15 16 16 16 17 18 18 19 19 20 21 22 22 23 24 24 23 21 20 21 21 21 20 20 20 20 21 22 22 23 23 23 23 23 23 23 24 24 25 25 26 26 26 27 27 27 28 28 28 28 29 29 30 30 30 30 31 31 32 34 35 36 37 38 40 40 38 38 42 44 44 45 46 47 48 49 49 50 50 50 51 51 52
11 12 13 13 13 14 14 14 15 15 15 16 16 18 19 21 21 22 24 24 24 23 22 21 21 21 21 21 20 21 21 22 22 23 23 23 24 24 24 25 25 25 25 26 26 27 27 27 28 28 29 29 29 30 30 30 31 31 32 32 33 34 34 35 36 37 38 40 41 43 43 41 41 44 46 46 47 48 49 50 50 51 52 52 52 53 53 53
11 12 12 12 12 12 12 12 13 13 13 13 15 16 17 19 20 21 23 23 21 20 21 21 21 21 21 21 21 21 22 22 22 23 23 24 24 24 25 26 26 27 27 27 27 28 28 29 29 29 30 30 31 31 32 32 33 33 34 35 35 36 36 37 38 39 40 42 43 45 45 44 44 46 48 48 49 50 51 51 51 52 53 53 54 53 53 54
10 10 11 11 11 10 10 11 11 12 13 13 14 14 15 16 17 18 20 20 19 17 18 20 20 21 21 21 21 22 22 22 23 23 24 24 24 24 25 26 26 27 28 28 28 29 29 30 30 30 31 32 33 33 33 34 34 35 36 37 37 38 38 39 40 41 43 44 45 46 47 47 47 49 50 50 51 52 52 52 53 54 54 54 54 53 54 54
7 8 9 9 10 9 9 10 10 12 13 13 13 13 13 13 14 15 16 17 17 16 16 18 19 20 21 21 21 22 22 23 23 23 24 24 25 25 25 26 27 27 28 29 29 30 31 31 31 31 32 33 34 35 35 35 35 36 37 38 39 40 41 41 42 43 45 46 47 48 48 48 49 50 51 52 53 52 52 52 53 54 54 54 54 54 55 55
4 5 7 7 7 8 8 9 10 11 12 12 13 14 13 12 12 13 14 15 16 16 16 17 18 19 20 21 22 22 23 23 23 24 24 24 25 26 26 27 27 28 29 29 30 30 31 31 31 32 33 34 35 36 37 37 37 38 38 39 40 41 42 43 44 46 47 48 48 50 50 50 50 51 52 53 53 52 52 53 53 54 54 55 55 55 55 55
3 4 5 5 4 5 6 8 10 11 11 12 13 14 14 13 13 14 14 15 16 16 16 17 18 19 20 21 22 22 23 24 24 24 25 25 26 27 27 28 28 29 29 29 30 30 31 31 31 32 33 35 36 36 37 38 39 39 40 41 42 42 43 44 46 47 48 49 49 51 51 51 51 52 52 53 53 53 53 53 53 54 55 55 55 56 56 55
3 3 4 4 3 3 4 6 8 9 10 11 12 14 14 14 14 15 15 16 16 16 17 17 18 19 20 21 22 23 23 24 24 25 25 26 27 28 28 28 28 29 29 29 29 29 30 30 31 32 33 34 36 37 38 39 40 41 42 42 43 44 44 45 47 48 49 50 50 51 52 52 52 53 53 53 53 53 53 54 54 54 55 55 56 56 55 54
2 3 3 4 4 4 5 7 8 9 9 10 11 12 13 14 14 14 15 16 16 17 17 18 18 19 21 22 22 23 23 24 25 26 26 27 28 28 28 28 28 28 29 29 30 30 31 31 32 33 34 35 37 38 39 40 41 42 43 44 44 45 46 46 48 49 50 51 51 52 52 52 53 53 53 54 54 54 54 54 54 55 55 55 55 55 54 52
2 3 4 5 5 6 7 8 10 11 11 11 12 13 14 14 14 14 15 15 16 17 18 18 19 20 21 22 22 23 24 25 26 27 27 28 28 28 28 28 29 29 30 32 33 34 34 34 35 36 36 37 38 38 39 40 41 42 43 44 45 46 47 47 49 50 50 51 51 52 52 53 53 53 54 55 54 54 55 55 55 55 55 55 54 52 51 50
2 3 4 4 5 6 8 9 10 11 11 12 13 14 15 15 15 15 15 14 15 16 17 18 19 20 21 22 23 24 24 26 27 28 28 28 29 29 30 30 31 32 33 33 33 34 34 34 35 35 36 37 38 39 40 41 42 43 44 45 46 47 48 48 49 50 50 51 52 53 53 54 54 54 55 55 55 55 55 55 55 54 53 52 50 49 48 47
2 3 4 6 7 8 9 11 11 12 13 13 14 15 15 16 16 16 15 15 16 16 17 19 20 21 22 23 24 24 25 25 26 26 26 27 28 29 30 30 30 31 31 31 32 32 33 34 35 35 36 37 38 39 40 41 42 43 45 46 46 47 48 49 49 50 50 51 52 53 54 55 55 55 55 56 55 55 55 54 53 52 50 49 48 47 47 46
3 5 7 9 11 12 13 14 15 16 16 16 16 16 16 16 16 16 16 16 16 17 18 19 20 20 21 22 23 24 24 24 24 24 24 25 26 26 27 28 29 29 30 31 32 33 34 35 35 36 37 38 39 40 41 42 42 43 45 45 46 47 47 48 49 50 51 51 52 52 54 55 55 55 55 55 55 54 54 53 51 50 49 48 48 47 46 46
6 8 10 12 14 16 17 18 19 20 20 20 19 18 17 17 17 17 17 17 18 19 20 20 19 19 19 19 19 20 20 21 21 21 22 23 24 25 25 26 27 28 29 29 30 31 32 34 35 36 37 38 40 41 41 42 42 43 44 45 45 46 47 47 48 50 50 51 51 51 52 55 56 55 55 55 54 54 52 51 50 50 49 49 48 48 47 46
9 11 13 15 17 19 20 21 22 22 22 21 20 18 17 17 17 17 17 16 16 18 18 18 17 17 16 16 16 17 17 18 18 18 19 20 21 22 23 24 25 26 27 28 30 31 32 34 35 36 38 39 40 40 41 42 42 43 44 44 45 46 46 47 48 49 50 51 50 49 51 53 54 54 54 53 53 53 52 51 51 51 51 50 49 48 48 47
12 14 16 18 20 22 23 24 24 24 23 21 19 17 16 15 15 14 14 13 12 12 13 14 15 16 16 15 16 16 16 17 18 18 18 20 21 22 23 24 26 27 28 29 30 31 32 34 35 36 37 38 39 40 41 42 42 43 44 45 45 46 47 48 49 50 51 52 51 49 50 52 52 53 52 52 52 52 52 52 52 51 51 50 49 48 48 48
14 16 18 20 22 23 24 24 23 21 19 17 15 14 13 12 11 10 10 10 10 10 11 12 13 13 14 15 15 16 17 17 18 19 19 20 21 22 23 25 26 27 28 29 30 31 33 34 35 36 37 38 39 39 40 41 42 44 45 46 46 48 48 49 50 51 52 52 51 49 50 50 51 52 51 52 52 51 51 51 51 51 51 50 49 49 50 50
15 17 19 21 21 20 19 18 16 14 12 11 10 10 9 8 8 8 8 9 10 10 11 11 11 11 12 13 13 14 15 16 17 18 19 20 21 21 23 24 25 27 28 29 30 32 33 34 35 36 36 37 38 39 41 42 44 45 46 47 48 48 49 49 50 50 50 50 49 49 50 50 52 53 52 52 52 51 51 51 52 51 51 51 51 51 51 51
16 18 17 16 14 13 13 12 10 9 7 7 6 6 6 6 6 5 6 8 9 10 11 11 11 11 12 13 14 15 15 16 17 19 20 21 22 22 24 25 26 27 28 29 30 31 32 33 33 34 35 37 38 40 42 44 45 46 46 47 47 48 48 48 48 48 49 50 49 50 51 52 53 54 53 53 53 52 52 52 52 52 51 52 52 52 52 52
16 14 11 9 9 10 10 10 9 8 7 6 5 5 6 6 5 4 5 6 8 10 12 12 13 13 13 14 15 16 18 18 19 20 21 22 23 24 25 25 26 27 27 27 27 28 29 31 33 34 36 38 40 41 42 43 43 44 44 46 47 48 49 49 49 49 50 51 51 52 53 53 54 54 54 53 53 53 53 53 52 51 51 51 51 51 52 52
11 8 7 8 9 9 9 9 8 8 8 7 7 7 8 6 4 4 5 7 8 11 14 15 15 16 16 16 17 17 19 20 21 21 22 22 23 24 25 25 26 27 27 28 28 28 29 31 34 35 36 37 38 39 40 40 41 43 44 45 47 48 50 51 51 51 52 52 52 53 53 54 54 54 53 52 52 53 52 52 51 50 51 51 51 51 52 52
6 7 8 8 8 8 8 8 7 8 8 9 9 9 8 5 4 5 7 9 12 14 17 18 18 18 18 18 18 18 19 20 21 21 22 22 23 24 25 26 27 28 29 31 32 33 33 33 33 33 34 35 36 38 39 40 42 43 44 45 47 48 50 52 52 53 53 53 53 53 53 54 54 53 53 52 52 52 51 50 50 50 50 51 51 52 52 52
6 8 9 8 8 8 7 7 7 7 8 10 10 10 7 5 5 6 9 12 15 17 19 20 20 20 20 19 19 19 19 19 20 21 22 23 24 25 26 27 28 29 31 32 33 33 32 31 31 32 33 35 37 38 40 42 43 44 45 47 48 48 50 51 52 53 53 54 54 53 53 54 53 54 54 53 52 51 50 50 50 50 51 51 52 52 52 52
7 8 7 7 7 7 7 7 7 8 9 10 10 9 8 6 6 8 10 13 16 19 20 20 19 19 19 19 19 20 20 21 21 22 23 24 25 26 27 28 28 29 30 30 31 32 31 29 31 34 34 36 38 40 42 43 45 46 47 48 49 49 50 51 52 53 53 54 54 53 53 54 54 54 54 52 51 51 50 50 50 51 51 51 51 51 51 51
7 6 7 8 9 8 9 9 9 9 10 10 10 10 9 9 9 10 12 14 17 18 19 19 18 18 18 20 20 21 22 22 23 23 24 25 25 25 25 26 26 27 28 29 31 32 32 31 32 34 36 38 40 42 43 45 47 48 49 49 49 50 50 51 53 53 53 53 54 54 53 53 53 53 52 51 51 51 51 51 51 51 51 51 51 50 50 49
5 6 7 8 9 9 9 9 10 10 11 11 11 11 11 11 11 12 14 15 17 17 18 18 19 19 19 21 22 23 23 23 23 23 23 23 23 24 24 25 27 28 29 30 32 33 35 34 33 36 39 41 43 45 46 48 49 50 50 50 50 50 50 51 53 53 53 54 55 54 53 54 53 52 52 52 52 52 51 51 51 51 51 50 49 48 48 49
5 6 7 8 8 9 10 10 10 11 11 12 12 12 12 12 13 14 14 15 16 17 19 20 20 21 21 21 21 21 21 21 21 21 22 22 23 24 25 27 28 29 31 32 34 36 38 39 38 39 42 44 46 48 49 50 51 51 51 51 51 51 51 51 52 51 52 53 54 55 54 54 53 53 52 52 52 51 51 51 51 50 49 48 48 48 48 49
5 6 7 8 9 10 11 12 12 12 12 12 13 13 13 14 14 15 15 16 18 19 19 20 19 19 18 18 18 18 20 20 20 21 22 23 24 25 26 28 30 32 33 35 37 39 41 43 43 43 44 46 49 51 52 53 53 53 52 51 51 51 51 51 51 50 49 51 53 54 54 53 53 52 51 51 50 50 50 50 49 49 48 48 48 48 50 52
5 7 8 9 11 12 12 13 13 13 13 13 14 14 14 15 15 16 17 18 18 18 17 17 17 17 17 17 17 18 19 20 21 22 23 25 26 28 29 31 33 34 36 38 40 42 44 46 47 47 47 49 51 53 54 55 55 54 52 51 51 51 50 51 51 50 49 51 52 52 54 54 52 50 49 49 49 49 49 48 48 48 49 50 51 53 55 58
7 9 10 11 12 12 12 13 13 14 14 15 15 16 16 17 17 17 17 16 16 16 16 16 17 17 17 17 18 18 19 21 23 24 25 27 29 30 32 34 36 38 40 41 43 45 47 49 50 50 51 52 54 55 55 56 55 53 51 51 50 50 50 51 52 52 51 52 51 51 53 53 50 48 48 47 48 48 48 49 49 51 52 54 55 57 59 60
9 10 11 11 12 12 13 14 14 15 16 16 16 16 16 15 15 15 14 15 15 15 16 16 17 18 18 18 19 20 20 22 24 26 28 30 31 33 35 37 39 41 42 44 45 47 49 51 53 53 52 53 54 55 55 54 53 51 50 49 49 49 50 51 52 52 53 52 50 50 52 51 49 48 48 48 48 49 50 50 52 53 55 56 57 59 60 61
10 11 11 12 12 13 14 15 15 16 16 15 14 14 14 14 14 14 14 14 15 15 16 17 17 19 20 21 22 23 24 25 27 29 31 33 35 36 38 40 42 43 45 46 48 49 51 53 55 56 56 56 56 56 55 53 51 49 49 49 49 49 50 52 52 52 52 51 48 49 50 50 48 47 47 48 49 50 51 52 54 56 57 58 59 61 62 63
10 11 12 13 13 14 15 15 15 14 13 13 13 14 14 14 15 15 15 15 16 16 17 17 18 20 21 23 25 26 28 29 31 32 34 36 38 39 41 42 44 45 46 48 49 51 52 53 55 57 58 58 59 58 56 55 53 51 49 49 50 50 51 52 52 51 51 50 48 48 49 48 47 47 47 48 49 51 53 54 56 58 59 60 61 62 63 65
10 12 13 13 14 14 13 13 13 13 13 14 14 15 15 15 15 16 16 16 16 17 18 19 20 22 23 25 27 29 31 33 34 36 37 39 41 42 43 44 45 46 48 49 51 52 52 53 55 56 55 55 56 55 54 54 54 52 51 50 51 51 51 51 51 50 50 50 49 48 48 48 48 48 49 50 51 53 55 57 58 60 61 62 63 64 66 67
12 12 13 13 12 12 13 13 14 14 15 15 15 15 15 15 16 16 17 18 18 19 20 22 23 25 26 28 29 31 33 35 37 39 39 41 42 43 44 45 46 47 49 50 51 52 53 54 55 54 51 51 52 52 51 52 53 52 52 51 51 51 50 50 49 49 50 50 49 48 49 49 49 50 51 53 55 57 58 59 60 61 62 63 65 67 68 69
12 12 12 11 12 13 14 14 15 15 15 15 15 16 16 16 17 18 18 20 21 22 24 25 27 28 30 32 34 35 36 37 38 40 41 42 43 43 44 46 47 48 50 51 52 54 55 55 55 53 49 48 51 51 50 51 51 51 51 50 50 50 49 49 49 49 49 50 50 51 51 51 51 53 55 56 58 59 60 61 62 63 65 66 67 68 69 70
11 12 12 12 13 14 15 15 15 15 15 16 16 16 17 17 18 20 21 22 24 26 28 29 31 32 34 36 38 39 40 41 41 42 42 43 44 44 45 46 48 50 51 53 54 55 55 54 54 53 50 49 50 50 49 49 49 49 49 49 49 49 49 49 50 50 50 51 52 52 52 52 54 56 58 59 60 61 62 62 63 65 66 67 68 69 70 71
12 12 13 14 15 15 15 15 15 15 16 16 16 17 18 19 21 22 24 25 27 28 30 32 34 36 37 39 40 41 42 43 44 44 44 44 45 46 47 48 50 51 53 54 54 54 53 52 53 53 51 49 49 49 48 48 48 48 48 48 49 50 50 50 51 51 52 53 53 54 54 56 58 59 60 61 62 62 63 64 64 66 66 67 68 69 69 70
13 14 14 15 16 16 15 15 15 16 17 17 18 19 20 22 23 25 26 28 29 31 33 34 36 37 38 39 40 41 42 42 43 44 45 45 46 47 49 49 51 52 53 53 53 52 52 52 52 53 52 49 49 49 48 48 49 49 49 50 51 52 52 53 54 55 56 56 57 58 59 60 61 61 62 62 63 63 64 64 65 65 66 66 67 68 68 67
14 15 15 15 16 16 15 15 16 17 18 19 20 22 23 24 26 27 29 30 32 33 35 36 37 38 39 40 40 40 41 41 42 43 44 46 47 48 49 50 52 52 51 51 51 51 52 51 51 52 51 50 50 50 50 51 51 51 53 54 55 55 56 56 57 58 59 60 61 61 62 62 63 64 64 64 63 63 64 65 65 65 66 66 67 68 68 67
Wind_Direction
234 248 269 289 305 316 316 304 178 173 181 174 154 111 94 93 99 119 147 169 180 191 200 206 202 191 185 186 191 199 207 207 209 210 211 213 217 226 233 237 242 249 257 263 266 267 268 270 272 274 276 279 281 283 285 288 290 292 293 293 291 290 290 290 290 289 287 287 288 289 289 288 286 284 284 284 284 284 284 284 285 286 287 288 290 291 291 292
236 247 260 274 285 291 298 300 277 189 186 191 199 202 204 189 145 153 173 193 203 209 218 227 232 233 229 227 226 224 227 230 231 231 231 231 231 234 240 244 245 250 257 261 264 267 269 270 272 273 276 278 280 282 285 286 287 288 289 289 288 288 289 290 290 289 288 287 287 286 285 283 282 283 284 285 286 286 286 286 287 289 289 291 293 293 294 294
234 245 255 264 275 281 288 297 299 282 213 199 203 207 215 227 239 244 240 233 229 229 231 235 242 245 245 246 249 246 242 242 244 246 246 245 245 244 247 250 250 252 254 258 262 265 268 270 272 275 277 278 280 282 282 283 284 285 286 286 286 288 290 291 291 290 290 289 288 286 285 284 284 285 286 286 287 287 287 288 289 290 291 292 294 294 295 295
236 244 252 258 268 277 285 293 298 298 288 256 226 216 216 224 235 246 253 257 256 253 249 246 248 251 251 250 252 255 254 253 254 254 256 255 254 254 255 258 259 258 259 260 263 265 267 269 272 274 276 278 279 280 279 280 281 282 284 284 284 287 289 290 290 291 291 290 289 288 288 288 288 289 288 288 289 288 288 290 290 291 292 293 294 294 295 295
241 247 252 258 264 271 279 285 290 292 292 286 271 250 232 227 229 237 246 254 260 263 263 259 254 254 254 253 254 256 257 258 259 257 258 258 259 259 260 262 263 265 265 265 265 265 267 269 271 274 276 277 278 277 277 277 279 280 281 282 284 286 288 289 290 290 289 289 289 289 290 289 289 289 289 289 289 289 290 292 292 292 293 293 294 294 294 295
242 249 255 261 266 271 278 282 285 287 289 288 282 273 259 247 238 235 239 244 251 257 263 265 262 258 256 255 255 256 257 257 259 259 259 259 262 263 264 265 265 266 265 265 265 264 265 267 269 272 275 276 276 276 276 277 278 279 280 282 285 287 289 289 289 289 289 289 289 289 289 288 289 289 289 290 290 290 291 292 292 292 293 293 294 294 295 295
245 251 257 263 269 273 277 280 283 285 285 284 282 278 271 263 254 246 241 240 243 247 254 259 261 261 259 258 257 257 258 258 258 258 259 260 262 265 266 267 267 267 266 265 265 265 266 268 270 272 274 276 276 277 277 277 279 280 282 285 287 287 287 288 287 287 287 287 287 287 287 287 289 290 291 291 291 292 291 292 292 293 294 294 295 295 295 295
248 254 259 264 268 271 274 277 280 283 283 283 281 279 276 272 266 259 252 246 243 243 246 251 255 258 259 259 258 258 258 258 259 258 259 260 262 264 265 266 267 268 268 268 268 269 270 271 272 273 274 275 276 276 277 278 280 281 284 285 285 285 285 285 285 285 285 285 285 286 287 288 289 291 291 291 291 292 292 292 293 294 295 295 295 295 295 295
252 257 261 264 266 270 274 277 280 282 283 284 283 281 279 277 274 270 264 256 250 246 245 247 251 254 255 256 256 257 257 257 258 258 259 260 261 262 264 266 268 270 272 272 272 272 273 274 274 274 274 274 275 276 277 278 280 282 282 282 283 283 283 284 284 284 285 285 285 287 288 290 291 292 291 292 292 293 293 293 294 295 295 295 295 295 295 294
254 258 262 265 269 272 276 279 281 282 281 281 281 281 280 278 276 274 271 266 258 251 246 245 248 252 254 255 254 254 255 255 256 257 258 259 260 262 264 267 269 272 274 275 275 275 275 275 276 276 276 276 277 277 278 279 280 281 281 281 282 282 283 283 283 284 285 285 286 287 289 291 293 293 293 294 294 294 294 294 295 295 295 295 295 295 294 293
255 260 265 270 274 277 279 281 281 281 281 281 281 280 280 278 276 273 271 269 264 257 249 245 245 249 253 256 256 256 255 255 256 256 257 258 260 263 266 268 271 273 275 276 277 277 277 278 278 279 279 279 279 279 280 280 280 280 281 281 281 282 283 283 284 285 286 286 287 288 289 291 294 294 293 295 295 295 295 295 295 295 295 295 294 294 293 292
260 266 271 274 276 277 277 277 276 277 277 279 280 280 278 277 275 272 270 268 266 261 254 249 245 247 251 256 259 260 259 258 258 258 258 259 261 263 266 269 271 273 275 277 278 279 280 280 281 281 281 281 281 281 281 282 281 281 281 281 281 281 282 283 284 285 286 287 287 288 288 292 295 294 294 295 295 295 295 295 295 294 294 294 293 293 292 291
263 267 269 271 272 272 271 271 269 270 272 275 276 276 276 275 274 273 271 270 268 265 260 253 248 246 250 256 260 262 263 263 263 263 262 263 263 265 268 270 273 275 277 278 280 281 282 283 283 283 283 283 283 283 284 284 283 283 282 282 282 282 282 284 285 286 287 287 288 288 289 292 295 294 294 294 294 294 294 294 294 293 293 293 292 292 291 291
260 263 266 269 271 271 271 270 269 269 271 274 275 275 274 274 273 274 273 271 270 269 264 257 252 248 250 256 260 263 265 266 266 266 267 267 268 270 271 273 275 277 279 281 282 284 284 285 285 285 285 285 285 285 285 285 285 284 284 284 284 283 284 284 286 288 289 289 289 290 291 293 295 293 293 293 293 293 292 292 292 292 292 291 290 291 291 291
257 262 268 273 276 277 277 276 275 275 275 278 280 277 275 275 276 275 274 273 271 269 265 260 257 254 253 257 260 263 266 267 268 269 270 272 273 274 275 277 278 280 282 283 284 285 285 286 286 285 286 286 286 286 286 286 286 285 285 285 285 285 285 286 289 291 291 290 291 292 293 294 294 292 292 292 292 291 291 292 291 291 290 290 290 290 290 290
260 266 274 279 281 282 281 281 280 281 284 286 284 281 280 280 280 279 276 274 270 265 262 260 260 259 259 260 260 264 267 269 271 271 272 273 274 275 277 278 279 281 282 283 284 284 284 285 285 285 286 286 286 286 285 285 286 285 285 286 286 286 288 289 291 292 292 292 292 292 293 293 293 291 291 291 290 291 291 291 290 289 289 289 290 291 290 290
267 278 285 287 287 284 283 284 284 286 289 289 288 287 286 284 283 282 279 276 270 263 260 262 264 264 264 263 262 265 269 272 273 273 273 274 275 276 276 277 278 278 279 280 282 282 283 284 285 285 285 285 285 286 286 286 286 286 286 287 288 289 290 292 292 292 291 292 292 292 292 293 292 291 291 290 290 291 291 290 290 290 290 291 291 291 290 290
288 303 306 301 296 289 285 286 286 289 291 291 291 289 288 285 282 278 275 273 271 267 265 265 266 265 265 265 266 268 270 272 273 273 274 274 275 276 276 277 277 278 279 280 281 282 283 284 285 285 286 286 287 287 288 288 288 288 289 289 290 291 292 293 292 291 291 292 292 292 292 292 291 291 291 291 291 291 290 290 290 291 291 291 291 291 291 290
344 342 336 328 318 304 294 290 290 292 294 293 292 290 288 285 280 275 271 269 268 268 266 266 267 266 267 268 268 269 269 270 271 272 273 274 275 275 275 276 277 278 279 280 281 282 283 285 287 287 287 288 289 289 289 290 290 291 291 291 292 292 292 291 290 290 291 291 291 291 291 291 291 291 291 291 291 291 291 291 291 291 291 292 291 291 291 290
14 3 359 357 353 338 314 300 296 295 295 294 292 291 289 284 280 277 275 273 271 271 268 267 267 267 268 268 268 268 268 269 270 271 272 273 273 273 275 276 278 279 280 281 282 283 284 286 289 289 290 290 290 291 291 292 292 292 292 292 292 291 291 290 290 290 291 291 291 291 291 292 291 291 291 292 292 292 292 291 291 292 292 292 291 291 290 290
13 351 347 346 341 330 312 300 294 291 290 287 285 286 285 282 280 279 277 276 274 273 270 268 268 268 269 270 270 269 268 269 270 270 271 272 273 275 276 278 279 280 281 282 283 284 285 287 288 289 290 291 291 292 292 291 291 291 291 291 291 291 291 291 291 291 291 291 292 291 292 292 291 291 292 291 292 292 292 292 292 292 292 292 291 291 291 291
325 325 322 319 314 303 294 288 285 284 282 278 275 276 278 278 277 276 275 275 273 271 271 270 269 268 269 270 270 270 270 271 272 272 272 273 275 276 277 278 279 281 282 284 285 286 286 287 287 288 289 290 290 291 290 291 291 291 291 291 291 291 291 291 291 291 292 292 292 292 292 292 292 292 292 292 292 293 293 293 293 292 292 292 292 292 292 291
323 323 317 306 298 291 288 286 284 284 283 281 278 276 276 275 275 274 274 276 276 275 276 276 275 274 274 274 274 275 275 275 275 275 275 275 276 276 278 279 281 283 285 286 287 288 289 289 289 289 290 290 290 290 290 290 291 291 291 291 291 291 291 291 291 292 292 293 293 293 293 292 293 293 293 293 293 293 293 293 293 293 293 293 293 293 292 291
327 315 308 300 295 293 291 291 291 290 288 286 284 282 281 280 279 279 280 284 285 283 282 280 280 281 281 281 281 281 281 281 280 281 280 279 279 280 281 283 284 286 288 289 290 290 290 290 290 290 290 290 290 290 290 290 291 291 292 292 292 292 292 293 293 293 293 294 295 295 294 294 294 294 293 294 294 294 294 294 294 294 294 294 293 293 292 290
307 306 302 299 297 296 296 295 295 294 293 293 292 291 291 290 290 291 292 293 292 290 288 286 286 284 282 281 281 281 282 283 284 285 285 285 285 285 285 286 287 288 288 289 289 289 289 290 290 290 290 290 290 290 291 291 291 292 292 293 293 293 294 294 295 294 294 295 295 296 295 294 294 294 294 294 295 295 295 295 294 294 294 293 293 292 291 289
306 305 303 302 302 302 301 301 300 299 300 300 299 299 300 300 301 302 301 300 297 294 292 290 289 287 285 284 284 283 284 285 286 287 287 286 286 286 287 287 288 288 289 289 289 289 289 290 290 290 291 291 291 292 292 293 293 294 294 295 295 296 296 296 296 296 295 295 295 296 296 295 295 295 295 295 295 295 295 294 294 294 294 293 293 292 290 288
309 309 308 306 306 306 305 303 302 302 302 301 300 302 305 306 307 308 306 305 301 296 293 291 289 289 290 290 289 289 290 290 291 291 290 289 288 288 288 289 289 289 289 289 289 290 290 291 291 292 292 293 293 294 295 296 297 297 297 297 297 297 297 297 297 296 296 296 296 297 296 296 296 296 296 296 295 295 295 295 295 294 294 293 292 291 289 288
313 311 310 309 308 306 305 304 303 303 302 302 302 305 307 309 311 313 314 314 310 305 304 301 296 293 291 290 290 291 292 293 294 293 292 290 289 289 289 289 290 290 290 291 291 292 292 293 294 295 295 296 297 298 299 299 299 299 299 299 298 298 298 298 297 297 297 297 297 297 296 296 296 295 296 295 295 295 296 295 295 294 294 293 292 291 290 289
315 313 312 311 309 308 307 307 306 305 304 304 307 309 312 316 322 327 328 325 322 322 321 317 311 305 300 296 293 293 293 293 293 292 291 290 290 291 291 292 293 294 294 294 295 296 296 297 298 298 299 300 300 300 300 300 300 300 299 299 299 298 298 298 298 298 298 298 298 297 296 296 295 295 296 295 296 296 296 296 295 295 295 294 293 292 292 291
318 316 314 314 314 316 316 317 317 318 319 319 320 321 324 333 339 338 334 333 333 332 329 324 321 317 312 307 302 299 297 295 295 294 294 293 294 295 295 296 296 297 297 298 299 300 300 300 301 301 301 302 302 302 302 301 300 300 299 299 299 299 299 299 299 299 299 299 299 298 297 297 296 297 297 298 299 299 298 297 297 296 296 295 294 293 292 292
319 318 318 320 326 333 336 341 349 357 360 354 344 339 338 340 343 339 336 342 343 338 334 329 324 319 314 311 308 306 303 302 301 301 300 300 300 300 300 300 301 301 302 304 304 303 303 303 302 302 303 303 303 303 302 301 301 302 302 302 302 302 302 301 301 301 301 301 301 300 300 299 299 299 300 300 300 299 298 297 297 297 296 295 294 294 293 293
322 324 328 337 346 353 360 10 22 28 28 15 355 340 328 323 323 320 328 340 342 339 337 332 326 321 315 312 311 310 308 307 306 306 306 306 306 306 305 305 304 303 303 302 301 302 303 303 303 303 304 304 303 303 303 304 304 305 305 305 305 305 304 304 304 304 303 303 303 302 302 301 300 301 301 301 300 299 298 298 298 297 296 295 294 294 294 294
331 340 348 350 352 358 9 20 26 25 18 2 342 329 320 308 289 284 303 319 327 333 335 332 328 324 320 319 317 315 312 311 311 311 310 310 310 309 308 307 306 305 304 302 300 300 301 303 304 305 305 305 305 305 306 306 307 307 308 308 308 308 307 307 307 306 305 305 304 303 302 302 301 301 301 300 299 299 299 299 298 297 296 295 295 295 295 295
352 357 350 345 344 346 357 8 13 8 358 348 337 330 322 301 273 277 291 303 314 326 331 331 328 325 322 321 319 317 315 315 315 314 314 313 312 311 311 310 308 307 306 305 304 303 304 307 309 310 311 310 310 310 311 311 311 311 312 311 311 311 310 309 308 307 306 305 304 303 302 302 302 301 300 299 299 299 299 298 297 296 296 296 295 295 295 295
8 358 352 349 347 345 350 356 358 353 350 346 341 336 329 306 282 285 292 301 312 322 327 326 325 324 322 322 321 320 319 318 317 315 315 314 313 313 312 311 309 308 307 307 307 307 308 313 317 317 317 317 316 317 316 316 315 315 315 314 313 312 310 309 308 307 306 305 304 303 302 301 301 300 299 300 300 300 299 298 297 296 296 296 295 295 295 294
7 3 6 13 15 16 13 9 6 4 2 359 355 351 344 328 310 301 301 306 312 318 321 323 325 326 324 324 324 322 320 319 318 316 315 314 313 313 312 311 311 311 312 312 314 313 313 319 324 323 322 321 320 319 318 318 317 316 316 315 314 313 311 309 308 307 305 304 304 304 302 301 301 300 300 301 300 300 299 298 298 297 297 296 296 295 294 293
14 23 33 39 41 40 37 31 26 20 16 13 10 5 357 345 331 319 313 312 313 316 320 323 327 327 325 324 323 321 320 319 318 317 316 316 315 315 315 316 317 318 318 318 319 318 316 320 325 324 322 322 320 319 319 319 318 318 317 316 315 313 311 310 308 307 306 305 304 304 302 302 301 301 301 301 300 300 300 299 299 298 297 297 296 295 293 291
39 46 46 44 39 36 32 26 20 14 10 6 2 358 351 342 332 325 319 317 318 321 323 326 327 327 325 323 321 321 320 320 321 322 322 323 324 325 325 325 324 322 322 321 321 320 318 318 322 323 322 322 320 318 319 319 319 319 319 318 316 313 312 310 309 308 307 305 305 304 304 303 303 302 302 302 302 302 301 300 299 298 297 296 294 292 290 289
57 49 42 32 23 19 15 10 5 1 357 353 350 346 341 335 331 328 326 325 325 326 326 326 325 325 324 324 324 325 326 329 332 332 331 331 331 330 328 326 325 324 323 323 322 321 320 319 322 324 323 322 320 319 319 320 320 320 320 318 315 313 312 310 309 308 306 305 304 304 305 305 304 304 304 304 303 302 301 300 299 297 296 294 292 290 289 288
46 34 26 17 8 4 1 359 356 352 349 348 346 342 339 337 336 333 330 328 326 326 326 326 327 330 334 338 340 340 340 339 339 336 334 333 331 329 328 326 326 324 324 324 323 322 321 320 320 323 323 323 321 320 320 320 321 321 320 317 315 313 311 309 308 307 305 304 304 304 305 305 305 305 305 304 302 301 299 298 297 295 293 291 289 288 287 285
23 14 9 5 1 357 355 353 351 349 348 347 345 343 340 338 335 332 329 329 330 333 337 341 346 349 352 353 350 347 343 339 337 336 334 332 331 329 328 326 325 324 324 324 323 322 321 320 320 322 323 323 322 321 320 321 321 320 319 316 315 313 311 309 308 307 306 305 305 305 305 306 306 305 304 302 300 299 298 296 295 293 290 288 286 286 286 286
6 2 1 359 356 354 352 350 349 348 347 345 342 341 338 336 336 337 340 346 351 355 358 359 358 356 354 352 348 345 343 339 336 335 333 331 330 328 327 325 325 324 324 324 324 323 322 321 320 321 323 323 322 321 321 321 320 319 318 316 315 313 311 309 309 309 308 307 308 306 305 306 307 305 303 301 299 298 296 294 292 290 288 287 287 287 288 288
359 358 357 354 352 352 352 349 348 346 344 343 342 343 344 347 353 359 6 10 9 7 4 360 357 353 350 349 346 342 340 338 334 333 331 330 329 327 326 326 325 325 325 325 325 324 323 321 320 320 322 322 321 320 320 320 320 318 317 316 315 313 311 310 310 310 309 310 309 306 305 307 307 304 302 301 299 297 295 292 291 290 290 289 289 289 289 289
356 354 351 351 351 351 350 347 346 346 347 351 356 2 8 12 16 18 17 14 10 6 2 358 354 351 347 344 342 338 336 335 333 331 330 328 328 327 327 326 326 325 325 325 325 325 324 323 321 321 320 319 318 318 319 319 319 319 318 317 315 313 312 311 311 310 310 311 310 307 306 307 306 304 302 300 298 296 294 292 292 291 291 291 291 291 291 292
352 350 350 351 350 348 349 352 355 360 7 14 20 25 25 23 21 19 15 12 8 4 360 355 350 347 343 339 337 335 333 332 330 329 329 328 328 327 326 326 325 325 325 325 324 325 325 324 323 323 323 321 320 321 321 320 320 320 319 318 316 314 313 313 313 312 312 312 311 309 307 307 305 303 301 298 296 295 294 293 293 292 292 292 293 294 295 295
351 350 350 350 352 356 3 12 18 25 30 31 31 31 28 24 21 17 13 8 3 358 354 350 344 341 338 335 333 332 331 330 329 329 329 328 327 327 326 326 325 325 325 325 324 324 324 324 324 325 325 324 323 324 323 321 321 321 320 318 317 316 315 314 314 313 313 312 311 309 307 306 305 302 300 298 296 295 295 294 294 294 295 297 298 298 299 300
350 352 355 359 7 18 27 33 36 37 37 35 34 31 27 23 17 12 6 1 356 351 346 343 338 335 333 331 330 330 330 330 329 329 329 328 327 327 326 326 326 325 325 325 324 323 324 324 325 326 327 325 324 324 323 322 322 321 320 319 317 316 316 315 315 314 313 312 311 309 308 307 305 302 300 299 297 297 297 298 299 300 301 302 302 302 302 302
357 5 16 23 31 39 43 44 43 41 40 37 34 28 22 17 10 4 358 352 348 344 340 338 335 332 331 330 329 329 329 329 329 328 328 327 327 327 327 327 326 326 325 325 325 324 325 325 325 326 328 327 325 325 325 324 323 322 321 320 319 318 317 316 315 314 313 312 311 309 308 306 303 302 300 300 300 301 302 303 304 304 303 303 303 302 301 301
20 32 39 42 47 49 49 49 46 43 39 34 28 21 13 7 0 355 351 346 343 340 337 335 334 332 331 330 330 329 328 328 328 328 328 327 327 328 328 328 327 326 326 326 326 326 326 326 325 325 327 328 327 327 327 326 326 325 323 322 321 319 318 316 315 314 313 312 310 309 307 305 303 303 303 303 305 305 305 305 304 303 303 303 302 301 301 301
43 49 52 53 56 56 53 50 45 40 34 25 18 11 3 358 353 349 345 342 339 337 335 334 333 332 331 330 330 330 329 329 328 328 328 329 329 329 329 329 328 327 327 326 326 326 326 326 326 325 328 329 329 330 331 330 329 328 325 324 322 320 318 317 315 314 312 310 308 306 305 304 304 305 305 305 305 305 304 303 303 302 302 302 301 301 301 301
55 59 61 61 61 58 52 46 37 30 24 15 7 2 356 351 348 344 342 339 337 335 334 333 332 332 332 331 331 331 331 330 330 330 330 330 330 330 330 329 328 328 327 327 327 327 327 328 328 328 330 333 333 335 335 333 331 329 326 324 322 319 318 317 315 312 310 308 306 305 305 305 305 305 304 304 304 304 303 302 302 302 302 302 302 302 302 303
65 67 66 62 59 53 43 35 27 19 13 6 0 356 351 347 344 341 339 337 335 334 334 333 333 333 333 332 332 332 332 332 332 332 332 331 332 331 330 329 328 328 328 328 328 329 329 331 332 333 334 337 338 338 337 335 332 329 326 324 322 320 318 316 313 311 310 309 309 308 308 307 306 305 305 304 304 304 303 303 303 303 304 304 304 305 305 305